Location: Chervonnoye
(48.6000°N, 34.4000°E)
Time: 13:35:52
(UTC+00:00)

H-2A R/B - Pass Details

Date: 23 November 2020
Orbit: 734 x 836 km, 98.2° (Epoch: 27 January)

Event Time Altitude Azimuth Distance (km) Brightness Sun altitude
Exits shadow 16:43:14 44° 177° (S) 1,120 2.7 -27.4°
Maximum altitude 16:44:59 79° 256° (WSW) 828 2.1 -27.7°
Drops below altitude 10° 16:50:15 10° 344° (NNW) 2,367 4.7 -28.6°
Sets 16:52:34 0° 346° (NNW) 3,284 5.5 -28.9°
